Regional Weather Roundup
Issued by NWS Lake Charles, LA

Home | Current Version | Previous Version | Text Only | Print | Product List | Glossary On
Versions: 1 2 3 4 5 6 7 8 9 10 11 12 13 14 15 16 17 18 19 20 21 22 23 24 25 26 27 28 29 30 31 32 33 34 35 36 37 38 39 40 41 42 43 44 45 46 47 48 49 50
000
ASUS44 KLCH 191010
RWRLCH
RWRLCH
REGIONAL WEATHER ROUNDUP
NATIONAL WEATHER SERVICE LAKE CHARLES LA
500 AM CDT FRI SEP 19 2014

Note: "fair" indicates few or no clouds below 12,000 feet with no
significant weather and/or obstructions to visibility.


ACROSS SOUTHEAST TEXAS

CITY           SKY/WX    TMP DP  RH WIND       PRES   REMARKS
BEAUMONT       MOCLDY    76  74  93 NE6       29.87S
BEAUMONT CITY  CLOUDY    73  73  98 CALM      29.88S
ORANGE         CLOUDY   N/A N/A N/A CALM      29.90S HAZE
JASPER         CLOUDY    71  70  96 CALM      29.92S FOG
$$

ACROSS CENTRAL LOUISIANA

CITY           SKY/WX    TMP DP  RH WIND       PRES   REMARKS
LEESVILLE      MOCLDY    73  72  94 CALM      29.90S
FULLERTON      PTSUNNY   75  71  87 CALM      29.88F
ALEXANDRIA INT PTCLDY    70  69  97 CALM      29.88F
ESLER FIELD    PTCLDY    71  68  90 CALM      29.91R
DERIDDER       PTSUNNY   73  72  95 CALM      29.91F FOG
OAKDALE        CLOUDY    72  70  94 CALM      29.89F
OPELOUSAS      PTSUNNY   71  70  98 CALM      29.89S FOG
$$

ACROSS SOUTHWEST AND SOUTH CENTRAL LOUISIANA

CITY           SKY/WX    TMP DP  RH WIND       PRES   REMARKS
SULPHUR        DRIZZLE   77  76  98 E3        29.90R
LAKE CHARLES   CLOUDY    76  75  97 E3        29.89R FOG
CHENNAULT INT  NOT AVBL
CAMERON PHI    CLOUDY    77  75  94 NE5       29.91S
DEQUINCY       DRIZZLE   73  73  98 CALM      29.90S
JENNINGS       CLOUDY    72  71  96 E7        29.89S
LAFAYETTE      MOCLDY    73  72  96 NE3       29.90R
NEW IBERIA     CLOUDY    74  72  93 CALM      29.90R
ABBEVILLE      PTSUNNY   71  71  98 CALM      29.90R
PATTERSON      CLOUDY    73  72  94 E7        29.92S
SALT POINT       N/A     76  74  93 CALM      29.89R
$$

SELECTED SITES ACROSS THE REGION

CITY           SKY/WX    TMP DP  RH WIND       PRES   REMARKS
HOUSTON BUSH   HVY RAIN  75  73  93 NE8       29.87S
HOUSTON HOBBY  LGT RAIN  76  75  97 NE3       29.86S
GALVESTON      HVY RAIN  79  77  94 S14       29.85S FOG
COLLEGE STAT   RAIN      73  73 100 E5        29.89S
CONROE         LGT RAIN  73  72  96 CALM      29.89S
HUNTSVILLE     CLOUDY    74  71  91 CALM      29.90R
LUFKIN         CLOUDY    75  71  87 NE3       29.90F
SHREVEPORT     MOCLDY    71  68  90 CALM      29.91S
MONROE         CLEAR     67  65  93 NE3       29.92F
NATCHEZ MS     MOCLDY    70  66  88 N3        29.93R
BATON ROUGE    MOCLDY    72  70  93 NE5       29.91R
N.O. INTL ARPT CLOUDY    75  68  78 SE3       29.91S
SLIDELL        CLOUDY    72  70  93 N3        29.91R
$$

MARINE REPORTS

STATION/POSITION TIME  TEMP    WIND        PRES    VSBY  WAVE
                       AIR SEA DIR/SP/G                  HT/PER
                 (UTC) (F)     (DEG/KT/KT) (MB)    (MI)  (FT/S)
BUOY 30 S HIGH I 1000   81 84  130/ 10/ 12 1010.3F         1/ 5
SEA RIM ST PARK  1000   78     110/  6/  8 1011.9F
PORT ARTHUR      1000      83   70/  4/  6 1011.7R
SABINE PASS N    1000   77 82   80/  4/  5 1011.6S
TEXAS POINT      1000   78 81  150/  7/  7 1011.7R
CALCASIEU PASS   1000   76 82   80/  5/  6 1012.7S
LK CHARLES BEACH 1000   75 83              1012.1R
MARSH ISLAND     NOT AVBL
FRESH WATER LOCK 1000   75 84   30/  5/  7 1011.8S
AMERADA PASS     1000   75 83   90/  6/  8 1012.2F
$$


USA.gov is the U.S. government's official web portal to all federal, state and local government web resources and services.